When you browse on this site, cookies collect data to enhance your experience and personalize the content and advertising you see.
Visit our Privacy Policy to learn more. By continuing to use the site, you agree to this use of cookies and data.
  • en Belgique
  • Liste des pays
  • À 7 jours
  • Température de l'eau
  • Carte satellitaire
  • Carte météo
  • Widgets météo
  • user-avatar
    Se connecter

    Météo par heure à Sevan

    Ce jour, 26 Juin, Mercredi

    Heure Température Précipitation Vent Pression Humidité
    00:00 +20°C° 0.1 mm 2 m/s 644 mmHg 67%
    01:00 +20°C° 0 mm 2 m/s 644 mmHg 67%
    02:00 +19°C° 0 mm 2 m/s 643 mmHg 67%
    03:00 +19°C° 0 mm 2 m/s 643 mmHg 67%
    04:00 +19°C° 0 mm 2 m/s 644 mmHg 67%
    05:00 +20°C° 0 mm 2 m/s 644 mmHg 67%
    06:00 +21°C° 0 mm 2 m/s 645 mmHg 66%
    07:00 +24°C° 0 mm 2 m/s 645 mmHg 61%
    08:00 +25°C° 0 mm 1 m/s 645 mmHg 56%
    09:00 +27°C° 0 mm 1 m/s 645 mmHg 51%
    10:00 +28°C° 0.2 mm 1 m/s 646 mmHg 48%
    11:00 +29°C° 0.2 mm 1 m/s 646 mmHg 45%
    12:00 +30°C° 0.2 mm 2 m/s 646 mmHg 42%
    13:00 +31°C° 0.2 mm 2 m/s 646 mmHg 41%
    14:00 +31°C° 0.2 mm 2 m/s 645 mmHg 41%
    15:00 +31°C° 0.2 mm 2 m/s 645 mmHg 40%
    16:00 +30°C° 0.2 mm 2 m/s 644 mmHg 45%
    17:00 +29°C° 0.2 mm 3 m/s 644 mmHg 50%
    18:00 +28°C° 0.2 mm 3 m/s 643 mmHg 55%
    19:00 +26°C° 0.3 mm 3 m/s 643 mmHg 59%
    20:00 +24°C° 0.3 mm 3 m/s 643 mmHg 64%
    21:00 +21°C° 0.3 mm 3 m/s 642 mmHg 68%
    22:00 +20°C° 0.3 mm 3 m/s 642 mmHg 69%
    23:00 +20°C° 0.3 mm 2 m/s 642 mmHg 70%

    Demain, 27 Juin, Jeudi

    Heure Température Précipitation Vent Pression Humidité
    00:00 +19°C° 0.3 mm 2 m/s 642 mmHg 70%
    01:00 +19°C° 0.3 mm 2 m/s 642 mmHg 71%
    02:00 +19°C° 0.3 mm 2 m/s 642 mmHg 72%
    03:00 +18°C° 0.3 mm 2 m/s 642 mmHg 73%
    04:00 +19°C° 0.1 mm 2 m/s 642 mmHg 73%
    05:00 +19°C° 0.1 mm 2 m/s 642 mmHg 72%
    06:00 +20°C° 0.1 mm 2 m/s 642 mmHg 71%
    07:00 +21°C° 0.1 mm 2 m/s 642 mmHg 66%
    08:00 +24°C° 0.1 mm 2 m/s 643 mmHg 61%
    09:00 +26°C° 0.1 mm 2 m/s 643 mmHg 56%
    10:00 +27°C° 0.5 mm 2 m/s 643 mmHg 53%
    11:00 +28°C° 0.5 mm 2 m/s 642 mmHg 50%
    12:00 +29°C° 0.5 mm 2 m/s 642 mmHg 47%
    13:00 +29°C° 0.5 mm 2 m/s 642 mmHg 47%
    14:00 +29°C° 0.5 mm 2 m/s 642 mmHg 47%
    15:00 +29°C° 0.5 mm 3 m/s 641 mmHg 48%
    16:00 +28°C° 0.6 mm 3 m/s 641 mmHg 52%
    17:00 +27°C° 0.6 mm 3 m/s 641 mmHg 57%
    18:00 +26°C° 0.6 mm 3 m/s 640 mmHg 61%
    19:00 +24°C° 0.6 mm 3 m/s 640 mmHg 65%
    20:00 +21°C° 0.6 mm 3 m/s 640 mmHg 69%
    21:00 +19°C° 0.6 mm 3 m/s 640 mmHg 72%
    22:00 +19°C° 0.1 mm 2 m/s 639 mmHg 72%
    23:00 +19°C° 0.1 mm 2 m/s 639 mmHg 72%

    Après-demain, 28 Juin, Vendredi

    Heure Température Précipitation Vent Pression Humidité
    00:00 +19°C° 0.1 mm 2 m/s 639 mmHg 72%
    01:00 +19°C° 0.1 mm 2 m/s 639 mmHg 73%
    02:00 +18°C° 0.1 mm 2 m/s 639 mmHg 73%
    03:00 +18°C° 0.1 mm 2 m/s 638 mmHg 74%
    04:00 +20°C° 0 mm 1 m/s 638 mmHg 74%
    05:00 +20°C° 0 mm 1 m/s 638 mmHg 73%
    06:00 +20°C° 0 mm 1 m/s 638 mmHg 73%
    07:00 +22°C° 0.4 mm 1 m/s 638 mmHg 68%
    08:00 +23°C° 0.4 mm 1 m/s 638 mmHg 64%
    09:00 +24°C° 0.4 mm 1 m/s 638 mmHg 59%
    10:00 +26°C° 0.8 mm 1 m/s 638 mmHg 55%
    11:00 +27°C° 0.8 mm 1 m/s 638 mmHg 51%
    12:00 +28°C° 0.8 mm 1 m/s 638 mmHg 47%
    13:00 +28°C° 0.7 mm 1 m/s 638 mmHg 46%
    14:00 +29°C° 0.7 mm 2 m/s 637 mmHg 46%
    15:00 +29°C° 0.7 mm 2 m/s 637 mmHg 45%
    16:00 +27°C° 1.5 mm 2 m/s 637 mmHg 53%
    17:00 +24°C° 1.5 mm 2 m/s 636 mmHg 60%
    18:00 +21°C° 1.5 mm 3 m/s 636 mmHg 67%
    19:00 +20°C° 0.5 mm 2 m/s 636 mmHg 71%
    20:00 +19°C° 0.5 mm 2 m/s 636 mmHg 74%
    21:00 +19°C° 0.5 mm 1 m/s 636 mmHg 77%
    22:00 +19°C° 0 mm 1 m/s 636 mmHg 77%
    23:00 +18°C° 0 mm 1 m/s 636 mmHg 77%

    29 Juin, Samedi

    Heure Température Précipitation Vent Pression Humidité
    00:00 +17°C° 0 mm 2 m/s 636 mmHg 77%
    01:00 +17°C° 0 mm 2 m/s 635 mmHg 75%
    02:00 +18°C° 0 mm 1 m/s 635 mmHg 74%
    03:00 +16°C° 0 mm 1 m/s 635 mmHg 73%
    04:00 +18°C° 0 mm 1 m/s 635 mmHg 72%
    05:00 +19°C° 0 mm 1 m/s 635 mmHg 71%
    06:00 +20°C° 0 mm 1 m/s 635 mmHg 70%
    07:00 +21°C° 0.2 mm 1 m/s 636 mmHg 66%
    08:00 +22°C° 0.2 mm 1 m/s 636 mmHg 62%
    09:00 +24°C° 0.2 mm 2 m/s 636 mmHg 58%
    10:00 +25°C° 0.9 mm 2 m/s 636 mmHg 55%
    11:00 +26°C° 0.9 mm 2 m/s 637 mmHg 51%
    12:00 +27°C° 0.9 mm 2 m/s 637 mmHg 48%
    13:00 +27°C° 0.7 mm 2 m/s 637 mmHg 47%
    14:00 +28°C° 0.7 mm 2 m/s 637 mmHg 46%
    15:00 +28°C° 0.7 mm 3 m/s 637 mmHg 44%
    16:00 +25°C° 1.9 mm 2 m/s 636 mmHg 56%
    17:00 +21°C° 1.9 mm 2 m/s 635 mmHg 68%
    18:00 +18°C° 1.9 mm 2 m/s 635 mmHg 80%
    19:00 +19°C° 0.4 mm 1 m/s 635 mmHg 80%
    20:00 +19°C° 0.4 mm 1 m/s 636 mmHg 80%
    21:00 +19°C° 0.4 mm 1 m/s 637 mmHg 80%
    22:00 +18°C° 0 mm 1 m/s 637 mmHg 81%
    23:00 +18°C° 0 mm 1 m/s 636 mmHg 82%

    30 Juin, Dimanche

    Heure Température Précipitation Vent Pression Humidité
    00:00 +16°C° 0 mm 1 m/s 636 mmHg 82%
    01:00 +16°C° 0 mm 1 m/s 636 mmHg 82%
    02:00 +16°C° 0 mm 1 m/s 636 mmHg 81%
    03:00 +16°C° 0 mm 1 m/s 636 mmHg 81%
    04:00 +16°C° 0 mm 1 m/s 636 mmHg 79%
    05:00 +18°C° 0 mm 1 m/s 636 mmHg 78%
    06:00 +18°C° 0 mm 1 m/s 637 mmHg 76%
    07:00 +20°C° 0.3 mm 1 m/s 637 mmHg 73%
    08:00 +20°C° 0.3 mm 2 m/s 637 mmHg 69%
    09:00 +21°C° 0.3 mm 2 m/s 638 mmHg 65%
    10:00 +23°C° 0.8 mm 2 m/s 638 mmHg 62%
    11:00 +24°C° 0.8 mm 2 m/s 638 mmHg 58%
    12:00 +25°C° 0.8 mm 2 m/s 638 mmHg 54%
    13:00 +25°C° 1.1 mm 2 m/s 638 mmHg 53%
    14:00 +26°C° 1.1 mm 2 m/s 638 mmHg 52%
    15:00 +26°C° 1.1 mm 2 m/s 638 mmHg 51%
    16:00 +25°C° 1.1 mm 2 m/s 637 mmHg 55%
    17:00 +24°C° 1.1 mm 2 m/s 637 mmHg 59%
    18:00 +24°C° 1.1 mm 2 m/s 637 mmHg 62%
    19:00 +20°C° 1.4 mm 3 m/s 637 mmHg 69%
    20:00 +18°C° 1.4 mm 3 m/s 637 mmHg 77%
    21:00 +16°C° 1.4 mm 3 m/s 637 mmHg 84%
    22:00 +16°C° 0.6 mm 3 m/s 637 mmHg 84%
    23:00 +14°C° 0.6 mm 3 m/s 637 mmHg 84%

    1 Juillet, Lundi

    Heure Température Précipitation Vent Pression Humidité
    00:00 +15°C° 0.6 mm 2 m/s 637 mmHg 85%
    01:00 +15°C° 0.2 mm 2 m/s 636 mmHg 84%
    02:00 +14°C° 0.2 mm 2 m/s 636 mmHg 84%
    03:00 +14°C° 0.2 mm 1 m/s 636 mmHg 84%
    04:00 +14°C° 0.1 mm 1 m/s 636 mmHg 82%
    05:00 +15°C° 0.1 mm 1 m/s 636 mmHg 80%
    06:00 +15°C° 0.1 mm 1 m/s 637 mmHg 78%
    07:00 +16°C° 0.2 mm 1 m/s 637 mmHg 74%
    08:00 +18°C° 0.2 mm 1 m/s 637 mmHg 70%
    09:00 +19°C° 0.2 mm 1 m/s 637 mmHg 67%
    10:00 +20°C° 0.6 mm 1 m/s 638 mmHg 64%
    11:00 +20°C° 0.6 mm 2 m/s 638 mmHg 61%
    12:00 +21°C° 0.6 mm 2 m/s 638 mmHg 58%
    13:00 +21°C° 1.2 mm 2 m/s 638 mmHg 58%
    14:00 +21°C° 1.2 mm 2 m/s 638 mmHg 57%
    15:00 +21°C° 1.2 mm 2 m/s 638 mmHg 57%
    16:00 +20°C° 0.7 mm 3 m/s 638 mmHg 60%
    17:00 +19°C° 0.7 mm 4 m/s 638 mmHg 63%
    18:00 +17°C° 0.7 mm 5 m/s 638 mmHg 67%
    19:00 +15°C° 0.3 mm 4 m/s 638 mmHg 70%
    20:00 +14°C° 0.3 mm 3 m/s 638 mmHg 73%
    21:00 +14°C° 0.3 mm 2 m/s 639 mmHg 76%
    22:00 +13°C° 0.1 mm 2 m/s 639 mmHg 76%
    23:00 +13°C° 0.1 mm 2 m/s 639 mmHg 76%
    Voir plus